This is the latest recevied weather packets stored in our database for station/object AA4OM-2. If no packets are shown the sender has not sent any weather packets the latest 10 day(s).
| Time | Temp. | Humidity | Pressure | Rain* | Wind** | Luminosity | Snow |
|---|---|---|---|---|---|---|---|
| 1777325695 | 27.78° C | 64% | 1009.9 hPa | 0 mm | - | 260 W/m² | - |
| 1777325393 | 27.22° C | 65% | 1010 hPa | 0 mm | - | 219 W/m² | - |
| 1777325091 | 27.22° C | 64% | 1010.2 hPa | 0 mm | - | 293 W/m² | - |
| 1777324787 | 26.67° C | 65% | 1010.1 hPa | 0 mm | - | 105 W/m² | - |
| 1777324485 | 26.67° C | 66% | 1010.3 hPa | 0 mm | - | 45 W/m² | - |
| 1777324182 | 26.67° C | 66% | 1010.3 hPa | 0 mm | - | 71 W/m² | - |
| 1777323880 | 27.22° C | 65% | 1010 hPa | 0 mm | - | 64 W/m² | - |
| 1777323576 | 27.22° C | 64% | 1010.1 hPa | 0 mm | - | 99 W/m² | - |
| 1777323274 | 27.22° C | 65% | 1010.3 hPa | 0 mm | - | 156 W/m² | - |
| 1777322972 | 27.22° C | 65% | 1010.2 hPa | 0 mm | - | 142 W/m² | - |
| 1777322670 | 27.22° C | 66% | 1010.3 hPa | 0 mm | - | 125 W/m² | - |
| 1777322367 | 27.78° C | 66% | 1010.2 hPa | 0 mm | - | 141 W/m² | - |
| 1777322064 | 28.33° C | 62% | 1010.1 hPa | 0 mm | - | 142 W/m² | - |
| 1777321760 | 28.89° C | 60% | 1010 hPa | 0 mm | - | 406 W/m² | - |
| 1777321457 | 28.33° C | 62% | 1010.2 hPa | 0 mm | - | 376 W/m² | - |
| 1777321155 | 27.78° C | 65% | 1010.3 hPa | 0 mm | - | 398 W/m² | - |
| 1777320852 | 27.22° C | 64% | 1010.5 hPa | 0 mm | - | 260 W/m² | - |
| 1777320548 | 26.67° C | 66% | 1010.7 hPa | 0 mm | - | 478 W/m² | - |
| 1777320246 | 26.67° C | 65% | 1010.8 hPa | 0 mm | - | 117 W/m² | - |
| 1777319943 | 26.67° C | 64% | 1010.9 hPa | 0 mm | - | 150 W/m² | - |
| 1777319640 | 27.22° C | 65% | 1010.7 hPa | 0 mm | - | 140 W/m² | - |
| 1777319337 | 27.22° C | 66% | 1010.8 hPa | 0 mm | - | 230 W/m² | - |
| 1777319034 | 27.22° C | 63% | 1010.9 hPa | 0 mm | - | 269 W/m² | - |
| 1777318731 | 27.22° C | 65% | 1011 hPa | 0 mm | - | 182 W/m² | - |
| 1777318426 | 27.22° C | 65% | 1011.1 hPa | 0 mm | - | 193 W/m² | - |
* Rain latest hour (hover to see other rain measurements)
** Current wind speed in m/s (hover to see current wind gust speed)